Simultaneous Nadir Overpasses (SNOs) Predictions

Prediction of SNOs between AQUA and GOES-15 Satellite Orbit:

Table of predicted SNOs for the next 14.0 days since TLE Epoch: 5/25/2012
Index Date Time (AQUA) AQUA Lat,Lon GOES-15 Lat,Lon Distance(km) Time Diff (sec)
1 05/26/2012 10:20:00 -0.93,-131.20 -0.04,-135.42 480.57 80
2 05/26/2012 22:41:24 -0.14,-136.40 0.06,-135.43 109.44 80
3 05/28/2012 22:29:14 0.46,-133.44 0.06,-135.42 223.86 80
4 05/29/2012 10:50:31 0.59,-138.61 -0.08,-135.40 365.03 80
5 05/31/2012 10:38:23 0.01,-135.67 -0.08,-135.38 33.84 80
6 06/02/2012 10:26:18 -0.65,-132.75 -0.08,-135.34 295.76 80
7 06/02/2012 22:47:44 -0.45,-137.95 0.10,-135.34 296.12 80
8 06/04/2012 22:35:40 0.14,-135.02 0.10,-135.30 31.54 80
9 06/06/2012 22:23:38 0.74,-132.10 0.10,-135.25 357.97 80
10 06/07/2012 10:44:57 0.33,-137.28 -0.12,-135.24 232.34 80




NCC Satellite Simultaneous Nadir Overpasses (SNOs) Prediction Service
